#timestamp,LO_Frequency,Hit,StdDev 
1658797215.0,286046998.5,P
1658797215.9,286046998.5,P
1658797235.8,286046996.6,Y
1658797255.6,286047000.9,P
1658797275.4,286046998.5,N
1658797295.3,286046998.2,N
1658797315.1,286046998.3,N
1658797335.9,286046998.1,N
1658797355.7,286047000.3,N
1658797375.5,286047000.0,N
1658797395.4,286046998.2,N
1658797415.2,286047001.1,N
1658797435.0,286047000.6,N
1658797435.9,286047000.6,N
1658797455.8,286046998.2,N
1658797475.6,286047000.9,N
1658797495.5,286047000.4,N
1658797515.3,286047000.4,N
1658797535.1,286047000.0,N
1658797555.9,286047000.6,N
1658797575.7,286047000.6,N
1658797595.5,286047002.2,N
1658797615.4,286047000.5,N
1658797635.2,286047002.6,N
1658797655.1,286047002.5,N
1658797656.0,286047002.5,N
1658797675.8,286047001.9,N
1658797695.6,286046999.7,N
1658797715.5,286047000.2,N
1658797735.3,286047000.9,N
1658797755.1,286046998.5,N
1658797775.9,286046999.5,N
1658797795.7,286046999.4,N
1658797815.6,286046998.9,N
1658797835.4,286046997.0,N
1658797855.2,286046999.6,N
1658797875.1,286046998.8,N
1658797876.0,286046998.8,N
1658797895.8,286046999.1,N
1658797915.7,286046999.2,N
1658797935.5,286046999.3,N
1658797955.3,286046998.7,N
1658797975.2,286047000.7,N
1658797995.0,286047000.9,N
1658797995.9,286047000.9,N
1658798015.8,286047002.1,N
1658798035.6,286047002.3,N
1658798055.4,286047002.3,N
1658798075.3,286047002.7,N
1658798095.1,286047001.0,N
1658798115.8,286046998.2,N
1658798135.7,286046999.1,N
1658798155.5,286046999.4,N
1658798175.4,286046996.6,N
1658798195.2,286046997.2,N
1658798215.0,286046996.6,N
1658798215.9,286046996.6,N
1658798235.8,286047000.8,N
1658798255.6,286046999.3,N
1658798275.5,286046999.3,N
1658798295.3,286046999.0,N
1658798315.1,286046998.4,N
1658798335.9,286046998.3,N
1658798355.7,286046998.7,N
1658798375.6,286046999.1,N
1658798395.4,286047000.2,N
1658798415.2,286047002.6,N
1658798435.1,286047001.9,N
1658798436.0,286047001.9,N
1658798455.8,286046999.8,N
1658798475.6,286047002.7,N
1658798495.5,286047000.1,N
1658798515.3,286047000.3,N
1658798535.2,286047002.8,N
1658798555.9,286047000.4,N
1658798575.7,286047000.6,N
1658798595.6,286047000.5,N
1658798615.4,286046998.1,N
1658798635.2,286047000.7,N
1658798655.1,286046999.7,N
1658798656.0,286046999.7,N
1658798675.8,286047002.3,N
1658798695.7,286047000.0,N
1658798715.5,286047002.1,N
1658798735.3,286047000.4,N
1658798755.2,286046998.5,N
1658798775.0,286047000.9,N
1658798775.9,286047000.9,N
1658798795.7,286047000.8,N
1658798815.6,286046998.9,N
1658798835.4,286047000.5,N
1658798855.3,286046998.1,N
1658798875.1,286047000.6,N
1658798876.0,286047000.6,N
1658798895.8,286047000.7,N
1658798915.7,286046998.8,N
1658798935.5,286046998.3,N
1658798955.3,286046998.3,N
1658798975.2,286047000.8,N
1658798995.0,286047000.7,N
1658798995.9,286047000.7,N
1658799015.8,286047000.4,N
1658799035.6,286047001.7,N
1658799055.4,286047002.6,N
1658799075.3,286047002.8,N
1658799095.1,286047000.2,N
1658799115.8,286047000.0,N
1658799135.7,286046998.1,N
1658799155.5,286047000.0,N
1658799175.4,286047000.8,N
1658799195.2,286047000.4,N
1658799215.0,286047000.0,N
1658799215.9,286047000.0,N
1658799235.8,286047000.6,N
1658799255.6,286047000.3,N
1658799275.4,286047000.0,N
1658799295.3,286047002.7,N
1658799315.1,286047002.7,N
1658799335.9,286046999.8,N
1658799355.7,286046999.8,N
1658799375.5,286047002.2,N
1658799395.4,286047002.5,N
1658799415.2,286046999.7,N
1658799435.0,286047002.8,N
1658799435.9,286047002.8,N
1658799455.8,286047002.2,N
1658799475.6,286047000.1,N
1658799495.5,286047002.7,N
1658799515.3,286047002.7,N
1658799535.1,286047002.8,N
1658799555.9,286047002.8,N
1658799575.7,286047002.8,N
1658799595.5,286047002.7,N
1658799615.4,286047002.4,N
1658799635.2,286047002.7,N
1658799655.0,286046999.7,N
1658799656.0,286046999.7,N
1658799675.8,286047000.0,N
1658799695.6,286047001.9,N
1658799715.5,286047004.3,Y
1658799735.3,286047000.4,P
1658799755.1,286047001.0,N
1658799775.9,286047000.5,N
1658799795.7,286047000.4,N
1658799815.6,286047000.4,N
1658799835.4,286047002.5,Y
1658799855.2,286047002.2,P
1658799875.1,286047001.5,N
1658799876.0,286047001.5,N
1658799895.8,286047002.8,Y
1658799915.6,286046998.5,P
1658799935.5,286047000.4,N
1658799955.3,286046999.5,N
1658799975.2,286046998.7,N
1658800025.9,286047001.2,E
1658800035.8,286046998.1,N
1658800055.7,286046999.6,P
1658800075.5,286046999.0,N
1658800095.4,286046998.3,N
1658800115.2,286046998.7,N
1658800135.0,286046998.6,N
1658800135.9,286046998.6,N
1658800155.8,286047001.2,N
1658800175.6,286046998.3,N
1658800195.4,286046998.8,N
1658800215.3,286046998.4,N
1658800235.1,286046999.3,N
1658800255.9,286046998.6,N
1658800275.7,286046999.4,N
1658800295.5,286046997.0,Y
1658800315.4,286047000.8,P
1658800335.2,286047000.7,N
1658800355.0,286046996.7,P
1658800355.9,286046996.7,N
1658800375.8,286046997.7,N
1658800395.6,286046995.1,N
1658800415.5,286046997.9,N
1658800435.3,286046995.5,N
1658800455.1,286046995.2,N
1658800475.9,286046997.4,N
1658800495.7,286046997.7,N
1658800515.5,286046997.9,N
1658800535.4,286046998.0,N
1658800555.2,286046997.6,N
1658800575.1,286046997.0,N
1658800576.0,286046997.0,N
1658800595.8,286046997.4,N
1658800615.6,286046997.7,N
1658800635.5,286046996.8,N
1658800655.3,286046997.7,N
1658800675.1,286046996.9,N
1658800695.9,286046996.9,N
1658800715.7,286046999.3,N
1658800735.6,286046998.7,N
1658800755.4,286046998.2,N
1658800775.2,286046998.8,N
1658800795.1,286047000.9,N
1658800796.0,286047000.9,N
